;;;Fecha de Impresi�n:;;18/03/2024;;
GAD MUNICIPALIDAD DE AMBATO;;;;;;;
Reporte Solmaforo desde 01/02/2024 hasta 29/02/2024;;;;;;;
C�digo;Fecha;IUV;;IUV Completo;;;
2819197;15/02/2024 15:55:41;2;;1,6584;;;
2819200;15/02/2024 15:57:41;2;;1,5932;;;
2819202;15/02/2024 15:58:41;2;;1,6668;;;
2819204;15/02/2024 15:59:41;2;;1,7892;;;
2819206;15/02/2024 16:00:41;2;;1,8232;;;
2819208;15/02/2024 16:01:41;2;;1,8396;;;
2819210;15/02/2024 16:02:41;2;;1,9168;;;
2819213;15/02/2024 16:04:41;2;;1,9616;;;
2819215;15/02/2024 16:05:41;2;;1,9308;;;
2819217;15/02/2024 16:06:41;2;;1,998;;;
2819219;15/02/2024 16:07:41;2;;1,898;;;
2819221;15/02/2024 16:08:41;2;;1,9268;;;
2819223;15/02/2024 16:09:41;2;;1,8448;;;
2819226;15/02/2024 16:11:41;2;;2,0952;;;
2819228;15/02/2024 16:12:41;2;;2,4892;;;
2819230;15/02/2024 16:13:41;2;;2,0684;;;
2819232;15/02/2024 16:14:41;3;;2,7056;;;
2819234;15/02/2024 16:15:41;3;;3,436;;;
2819236;15/02/2024 16:16:41;4;;3,6396;;;
2819239;15/02/2024 16:18:41;3;;3,2472;;;
2819241;15/02/2024 16:19:41;3;;3,456;;;
2819243;15/02/2024 16:20:41;3;;2,8508;;;
2819245;15/02/2024 16:21:41;2;;1,9104;;;
2819247;15/02/2024 16:22:41;2;;1,7576;;;
2819249;15/02/2024 16:23:41;2;;1,6888;;;
2819252;15/02/2024 16:25:41;1;;1,4584;;;
2819254;15/02/2024 16:26:41;1;;1,4404;;;
2819256;15/02/2024 16:27:41;1;;1,4624;;;
2819258;15/02/2024 16:28:41;2;;1,5696;;;
2819260;15/02/2024 16:29:41;2;;1,6844;;;
2819262;15/02/2024 16:30:41;2;;2,1112;;;
2819265;15/02/2024 16:32:41;2;;2,4232;;;
2819267;15/02/2024 16:33:41;2;;1,9676;;;
2819269;15/02/2024 16:34:41;1;;1,4356;;;
2819271;15/02/2024 16:35:41;1;;1,3316;;;
2819273;15/02/2024 16:36:41;1;;1,2448;;;
2819275;15/02/2024 16:37:41;1;;1,3192;;;
2819278;15/02/2024 16:39:41;1;;1,3848;;;
2819280;15/02/2024 16:40:41;1;;1,3508;;;
2819282;15/02/2024 16:41:41;1;;1,3364;;;
2819284;15/02/2024 16:42:41;1;;1,3856;;;
2819286;15/02/2024 16:43:41;2;;1,942;;;
2819288;15/02/2024 16:44:41;2;;1,6868;;;
2819291;15/02/2024 16:46:41;1;;1,2436;;;
2819293;15/02/2024 16:47:41;1;;1,1884;;;
2819295;15/02/2024 16:48:41;1;;1,1604;;;
2819297;15/02/2024 16:49:41;1;;1,1736;;;
2819299;15/02/2024 16:50:41;1;;1,2052;;;
2819301;15/02/2024 16:51:41;1;;1,2688;;;
2819304;15/02/2024 16:53:41;1;;1,1944;;;
2819306;15/02/2024 16:54:41;1;;1,1208;;;
2819308;15/02/2024 16:55:41;1;;1,056;;;
2819310;15/02/2024 16:56:41;1;;0,9956;;;
2819312;15/02/2024 16:57:41;1;;0,9284;;;
2819314;15/02/2024 16:58:41;1;;0,8756;;;
2819317;15/02/2024 17:00:41;1;;0,9008;;;
2819319;15/02/2024 17:01:42;1;;0,9728;;;
2819321;15/02/2024 17:02:41;1;;1,0956;;;
2819323;15/02/2024 17:03:41;1;;1,2424;;;
2819325;15/02/2024 17:04:41;1;;1,3808;;;
2819327;15/02/2024 17:05:41;1;;1,4508;;;
2819330;15/02/2024 17:07:41;1;;1,4448;;;
2819332;15/02/2024 17:08:42;1;;1,3544;;;
2819334;15/02/2024 17:09:41;1;;1,238;;;
2819336;15/02/2024 17:10:42;1;;1,1356;;;
2819338;15/02/2024 17:11:41;1;;1,032;;;
2819340;15/02/2024 17:12:41;1;;0,9432;;;
2819343;15/02/2024 17:14:41;1;;0,7636;;;
2819345;15/02/2024 17:15:41;1;;0,6824;;;
2819347;15/02/2024 17:16:41;1;;0,6092;;;
2819349;15/02/2024 17:17:42;1;;0,5468;;;
2819351;15/02/2024 17:18:41;1;;0,504;;;
2819353;15/02/2024 17:19:42;0;;0,4904;;;
2819356;15/02/2024 17:21:41;1;;0,5836;;;
2819358;15/02/2024 17:22:41;1;;0,6684;;;
2819360;15/02/2024 17:23:41;1;;0,7556;;;
2819362;15/02/2024 17:24:41;1;;0,8244;;;
2819364;15/02/2024 17:25:41;1;;0,8584;;;
2819366;15/02/2024 17:26:42;1;;0,8748;;;
2819369;15/02/2024 17:28:41;1;;0,8816;;;
2819371;15/02/2024 17:29:41;1;;0,8416;;;
2819373;15/02/2024 17:30:41;1;;0,7784;;;
2819375;15/02/2024 17:31:41;1;;0,7204;;;
2819377;15/02/2024 17:32:41;1;;0,6728;;;
2819379;15/02/2024 17:33:42;1;;0,638;;;
2819382;15/02/2024 17:35:41;1;;0,6064;;;
2819384;15/02/2024 17:36:41;1;;0,5788;;;
2819386;15/02/2024 17:37:42;1;;0,532;;;
2819388;15/02/2024 17:38:41;0;;0,482;;;
2819390;15/02/2024 17:39:41;0;;0,4372;;;
2819392;15/02/2024 17:40:41;0;;0,4012;;;
2819395;15/02/2024 17:42:42;0;;0,3428;;;
2819397;15/02/2024 17:43:41;0;;0,3156;;;
2819399;15/02/2024 17:44:42;0;;0,2936;;;
2819401;15/02/2024 17:45:41;0;;0,276;;;
2819403;15/02/2024 17:46:41;0;;0,2636;;;
2819405;15/02/2024 17:47:41;0;;0,2544;;;
2819408;15/02/2024 17:49:41;0;;0,2564;;;
2819410;15/02/2024 17:50:41;0;;0,2636;;;
2819412;15/02/2024 17:51:41;0;;0,2676;;;
2819414;15/02/2024 17:52:41;0;;0,2628;;;
2819416;15/02/2024 17:53:42;0;;0,2528;;;
2819418;15/02/2024 17:54:41;0;;0,2408;;;
2819421;15/02/2024 17:56:41;0;;0,2212;;;
2819423;15/02/2024 17:57:41;0;;0,2132;;;
2819425;15/02/2024 17:58:42;0;;0,202;;;
2819427;15/02/2024 17:59:41;0;;0,1884;;;
2819429;15/02/2024 18:00:42;0;;0,1716;;;
2819431;15/02/2024 18:01:41;0;;0,1516;;;
2819434;15/02/2024 18:03:41;0;;0,116;;;
2819436;15/02/2024 18:04:41;0;;0,1028;;;
2819438;15/02/2024 18:05:41;0;;0,0928;;;
2819440;15/02/2024 18:06:41;0;;0,0852;;;
2819442;15/02/2024 18:07:41;0;;0,0792;;;
2819444;15/02/2024 18:08:41;0;;0,0728;;;
2819447;15/02/2024 18:10:41;0;;0,0692;;;
2819449;15/02/2024 18:11:42;0;;0,0696;;;
2819451;15/02/2024 18:12:41;0;;0,0692;;;
2819453;15/02/2024 18:13:41;0;;0,0676;;;
2819455;15/02/2024 18:14:41;0;;0,066;;;
2819457;15/02/2024 18:15:41;0;;0,0636;;;
2819460;15/02/2024 18:17:41;0;;0,0564;;;
2819462;15/02/2024 18:18:42;0;;0,0508;;;
2819464;15/02/2024 18:19:41;0;;0,0452;;;
2819466;15/02/2024 18:20:42;0;;0,04;;;
2819468;15/02/2024 18:21:41;0;;0,0356;;;
2819470;15/02/2024 18:22:41;0;;0,0328;;;
2819473;15/02/2024 18:24:41;0;;0,0304;;;
2819475;15/02/2024 18:25:41;0;;0,0308;;;
2819477;15/02/2024 18:26:41;0;;0,0316;;;
2819479;15/02/2024 18:27:41;0;;0,032;;;
2819481;15/02/2024 18:28:41;0;;0,0316;;;
2819483;15/02/2024 18:29:42;0;;0,0308;;;
2819486;15/02/2024 18:31:41;0;;0,0272;;;
2819488;15/02/2024 18:32:41;0;;0,0248;;;
2819490;15/02/2024 18:33:41;0;;0,022;;;
2819492;15/02/2024 18:34:42;0;;0,0196;;;
2819494;15/02/2024 18:35:41;0;;0,0176;;;
2819496;15/02/2024 18:36:42;0;;0,0148;;;
2819499;15/02/2024 18:38:42;0;;0,0108;;;
2819501;15/02/2024 18:39:41;0;;0,0088;;;
2819503;15/02/2024 18:40:41;0;;0,0072;;;
2819505;15/02/2024 18:41:41;0;;0,006;;;
2819507;15/02/2024 18:42:41;0;;0,0048;;;
2819509;15/02/2024 18:43:41;0;;0,0036;;;
2819512;15/02/2024 18:45:42;0;;0,002;;;
2819514;15/02/2024 18:46:41;0;;0,0012;;;
2819516;15/02/2024 18:47:41;0;;0,0008;;;
2819518;15/02/2024 18:48:42;0;;0,0004;;;
2819520;15/02/2024 18:49:41;0;;0,0004;;;
2819522;15/02/2024 18:50:42;0;;0,0004;;;
2819525;15/02/2024 18:52:42;0;;0;;;
2819527;15/02/2024 18:53:41;0;;0;;;
2819529;15/02/2024 18:54:42;0;;0;;;
2819531;15/02/2024 18:55:41;0;;0;;;
2819533;15/02/2024 18:56:41;0;;0;;;
2819535;15/02/2024 18:57:41;0;;0;;;
2819538;15/02/2024 18:59:42;0;;0;;;
2819539;15/02/2024 19:00:41;0;;0;;;
2819543;16/02/2024 05:02:42;0;;0;;;
2819545;16/02/2024 05:03:42;0;;0;;;
2819547;16/02/2024 05:04:42;0;;0;;;
2819549;16/02/2024 05:05:42;0;;0;;;
2819551;16/02/2024 05:06:42;0;;0;;;
2819553;16/02/2024 05:07:42;0;;0;;;
2819556;16/02/2024 05:09:43;0;;0;;;
2819558;16/02/2024 05:10:42;0;;0;;;
2819560;16/02/2024 05:11:43;0;;0;;;
2819562;16/02/2024 05:12:42;0;;0;;;
2819564;16/02/2024 05:13:42;0;;0;;;
2819566;16/02/2024 05:14:42;0;;0;;;
2819569;16/02/2024 05:16:42;0;;0;;;
2819571;16/02/2024 05:17:42;0;;0;;;
2819573;16/02/2024 05:18:43;0;;0;;;
2819575;16/02/2024 05:19:42;0;;0;;;
2819577;16/02/2024 05:20:42;0;;0;;;
2819579;16/02/2024 05:21:42;0;;0;;;
2819582;16/02/2024 05:23:42;0;;0;;;
2819584;16/02/2024 05:24:42;0;;0;;;
2819586;16/02/2024 05:25:42;0;;0;;;
2819588;16/02/2024 05:26:42;0;;0;;;
2819590;16/02/2024 05:27:42;0;;0;;;
2819592;16/02/2024 05:28:42;0;;0;;;
2819595;16/02/2024 05:30:42;0;;0;;;
2819597;16/02/2024 05:31:42;0;;0;;;
2819599;16/02/2024 05:32:42;0;;0;;;
2819601;16/02/2024 05:33:42;0;;0;;;
2819603;16/02/2024 05:34:42;0;;0;;;
2819605;16/02/2024 05:35:42;0;;0;;;
2819608;16/02/2024 05:37:42;0;;0;;;
2819610;16/02/2024 05:38:42;0;;0;;;
2819612;16/02/2024 05:39:42;0;;0;;;
2819614;16/02/2024 05:40:42;0;;0;;;
2819616;16/02/2024 05:41:42;0;;0;;;
2819618;16/02/2024 05:42:42;0;;0;;;
2819621;16/02/2024 05:44:42;0;;0;;;
2819623;16/02/2024 05:45:42;0;;0;;;
2819625;16/02/2024 05:46:42;0;;0;;;
2819627;16/02/2024 05:47:42;0;;0;;;
2819629;16/02/2024 05:48:42;0;;0;;;
2819631;16/02/2024 05:49:42;0;;0;;;
2819634;16/02/2024 05:51:42;0;;0;;;
2819636;16/02/2024 05:52:43;0;;0;;;
2819638;16/02/2024 05:53:42;0;;0;;;
2819640;16/02/2024 05:54:43;0;;0;;;
2819642;16/02/2024 05:55:42;0;;0;;;
2819644;16/02/2024 05:56:42;0;;0;;;
2819647;16/02/2024 05:58:42;0;;0;;;
2819649;16/02/2024 05:59:42;0;;0;;;
2819651;16/02/2024 06:00:42;0;;0;;;
2819653;16/02/2024 06:01:43;0;;0;;;
2819655;16/02/2024 06:02:42;0;;0;;;
2819657;16/02/2024 06:03:43;0;;0;;;
2819660;16/02/2024 06:05:42;0;;0;;;
2819662;16/02/2024 06:06:42;0;;0;;;
2819664;16/02/2024 06:07:42;0;;0;;;
2819666;16/02/2024 06:08:43;0;;0;;;
2819668;16/02/2024 06:09:42;0;;0;;;
2819670;16/02/2024 06:10:43;0;;0,0004;;;
2819673;16/02/2024 06:12:43;0;;0,0004;;;
2819675;16/02/2024 06:13:43;0;;0,0008;;;
2819677;16/02/2024 06:14:42;0;;0,0012;;;
2819679;16/02/2024 06:15:42;0;;0,0016;;;
2819681;16/02/2024 06:16:42;0;;0,002;;;
2819683;16/02/2024 06:17:43;0;;0,0028;;;
2819686;16/02/2024 06:19:43;0;;0,0044;;;
2819688;16/02/2024 06:20:42;0;;0,0056;;;
2819690;16/02/2024 06:21:42;0;;0,0072;;;
2819692;16/02/2024 06:22:42;0;;0,0092;;;
2819694;16/02/2024 06:23:42;0;;0,0104;;;
2819696;16/02/2024 06:24:42;0;;0,0116;;;
2819699;16/02/2024 06:26:43;0;;0,014;;;
2819701;16/02/2024 06:27:42;0;;0,0152;;;
2819703;16/02/2024 06:28:43;0;;0,0168;;;
2819705;16/02/2024 06:29:42;0;;0,0196;;;
2819707;16/02/2024 06:30:42;0;;0,0236;;;
2819709;16/02/2024 06:31:42;0;;0,0288;;;
2819712;16/02/2024 06:33:42;0;;0,0448;;;
2819714;16/02/2024 06:34:42;0;;0,0548;;;
2819716;16/02/2024 06:35:43;0;;0,062;;;
2819718;16/02/2024 06:36:42;0;;0,0696;;;
2819720;16/02/2024 06:37:43;0;;0,0812;;;
2819722;16/02/2024 06:38:42;0;;0,0936;;;
2819725;16/02/2024 06:40:42;0;;0,1044;;;
2819727;16/02/2024 06:41:42;0;;0,1048;;;
2819729;16/02/2024 06:42:43;0;;0,1044;;;
2819731;16/02/2024 06:43:42;0;;0,1032;;;
2819733;16/02/2024 06:44:43;0;;0,104;;;
2819735;16/02/2024 06:45:42;0;;0,1056;;;
2819738;16/02/2024 06:47:42;0;;0,1068;;;
2819740;16/02/2024 06:48:42;0;;0,1116;;;
2819742;16/02/2024 06:49:43;0;;0,1212;;;
2819744;16/02/2024 06:50:42;0;;0,132;;;
2819746;16/02/2024 06:51:43;0;;0,1396;;;
2819748;16/02/2024 06:52:42;0;;0,1432;;;
2819751;16/02/2024 06:54:42;0;;0,1472;;;
2819753;16/02/2024 06:55:43;0;;0,1512;;;
2819755;16/02/2024 06:56:42;0;;0,1532;;;
2819757;16/02/2024 06:57:42;0;;0,1576;;;
2819759;16/02/2024 06:58:43;0;;0,1624;;;
2819761;16/02/2024 06:59:42;0;;0,166;;;
2819764;16/02/2024 07:01:42;0;;0,1896;;;
2819766;16/02/2024 07:02:43;0;;0,2108;;;
2819768;16/02/2024 07:03:42;0;;0,2248;;;
2819770;16/02/2024 07:04:43;0;;0,222;;;
2819772;16/02/2024 07:05:42;0;;0,214;;;
2819774;16/02/2024 07:06:42;0;;0,2132;;;
2819777;16/02/2024 07:08:42;0;;0,2136;;;
2819779;16/02/2024 07:09:43;0;;0,2112;;;
2819781;16/02/2024 07:10:42;0;;0,2048;;;
2819783;16/02/2024 07:11:43;0;;0,2;;;
2819785;16/02/2024 07:12:42;0;;0,2004;;;
2819787;16/02/2024 07:13:43;0;;0,202;;;
2819790;16/02/2024 07:15:42;0;;0,2112;;;
2819792;16/02/2024 07:16:43;0;;0,2172;;;
2819794;16/02/2024 07:17:42;0;;0,2204;;;
2819796;16/02/2024 07:18:42;0;;0,2244;;;
2819798;16/02/2024 07:19:42;0;;0,2324;;;
2819800;16/02/2024 07:20:43;0;;0,2456;;;
2819803;16/02/2024 07:22:42;0;;0,2604;;;
2819805;16/02/2024 07:23:42;0;;0,2564;;;
2819807;16/02/2024 07:24:42;0;;0,2528;;;
2819809;16/02/2024 07:25:43;0;;0,2532;;;
2819811;16/02/2024 07:26:42;0;;0,2656;;;
2819813;16/02/2024 07:27:43;0;;0,2892;;;
2819816;16/02/2024 07:29:43;0;;0,3104;;;
2819818;16/02/2024 07:30:42;0;;0,3064;;;
2819820;16/02/2024 07:31:42;0;;0,306;;;
2819822;16/02/2024 07:32:43;0;;0,31;;;
2819824;16/02/2024 07:33:42;0;;0,3256;;;
2819826;16/02/2024 07:34:43;0;;0,3588;;;
2819829;16/02/2024 07:36:43;0;;0,4664;;;
2819831;16/02/2024 07:37:42;1;;0,5192;;;
2819833;16/02/2024 07:38:43;1;;0,5544;;;
2819835;16/02/2024 07:39:42;1;;0,5832;;;
2819837;16/02/2024 07:40:42;1;;0,6212;;;
2819839;16/02/2024 07:41:42;1;;0,696;;;
2819842;16/02/2024 07:43:43;1;;0,8264;;;
2819844;16/02/2024 07:44:42;1;;0,8428;;;
2819846;16/02/2024 07:45:43;1;;0,8672;;;
2819848;16/02/2024 07:46:43;1;;0,8852;;;
2819850;16/02/2024 07:47:43;1;;0,886;;;
2819852;16/02/2024 07:48:42;1;;0,892;;;
2819855;16/02/2024 07:50:42;1;;0,9576;;;
2819857;16/02/2024 07:51:42;1;;1,0056;;;
2819859;16/02/2024 07:52:43;1;;1,028;;;
2819861;16/02/2024 07:53:42;1;;1,0132;;;
2819863;16/02/2024 07:54:43;1;;0,9824;;;
2819865;16/02/2024 07:55:42;1;;0,9404;;;
2819868;16/02/2024 07:57:42;1;;0,944;;;
2819870;16/02/2024 07:58:42;1;;0,9904;;;
2819872;16/02/2024 07:59:43;1;;1,0124;;;
2819874;16/02/2024 08:00:42;1;;1,008;;;
2819876;16/02/2024 08:01:43;1;;0,9856;;;
2819878;16/02/2024 08:02:42;1;;0,954;;;
2819881;16/02/2024 08:04:42;1;;0,9328;;;
2819883;16/02/2024 08:05:43;1;;0,9644;;;
2819885;16/02/2024 08:06:43;1;;0,9864;;;
2819887;16/02/2024 08:07:42;1;;0,966;;;
2819889;16/02/2024 08:08:43;1;;0,9424;;;
2819891;16/02/2024 08:09:42;1;;0,9656;;;
2819894;16/02/2024 08:11:42;1;;1,0916;;;
2819896;16/02/2024 08:12:43;1;;1,0596;;;
2819898;16/02/2024 08:13:42;1;;1,0308;;;
2819900;16/02/2024 08:14:43;1;;1,1064;;;
2819902;16/02/2024 08:15:42;1;;1,148;;;
2819904;16/02/2024 08:16:42;1;;1,1776;;;
2819907;16/02/2024 08:18:42;1;;1,3248;;;
2819909;16/02/2024 08:19:43;1;;1,3472;;;
2819911;16/02/2024 08:20:42;1;;1,2852;;;
2819913;16/02/2024 08:21:43;1;;1,216;;;
2819915;16/02/2024 08:22:43;1;;1,2192;;;
2819917;16/02/2024 08:23:42;1;;1,3172;;;
2819920;16/02/2024 08:25:42;2;;1,5964;;;
2819922;16/02/2024 08:26:43;2;;1,6828;;;
2819924;16/02/2024 08:27:42;2;;1,81;;;
2819926;16/02/2024 08:28:43;2;;2,1724;;;
2819928;16/02/2024 08:29:42;2;;2,4184;;;
2819930;16/02/2024 08:30:43;2;;2,4492;;;
2819933;16/02/2024 08:32:42;2;;1,928;;;
2819935;16/02/2024 08:33:42;2;;2,314;;;
2819937;16/02/2024 08:34:42;2;;2,0524;;;
2819939;16/02/2024 08:35:43;3;;2,5344;;;
2819941;16/02/2024 08:36:42;2;;2,3472;;;
2819943;16/02/2024 08:37:43;3;;2,9012;;;
2819946;16/02/2024 08:39:43;2;;2,4008;;;
2819948;16/02/2024 08:40:42;2;;2,2124;;;
2819950;16/02/2024 08:41:42;2;;1,7348;;;
2819952;16/02/2024 08:42:43;2;;1,7068;;;
2819954;16/02/2024 08:43:42;2;;1,8032;;;
2819956;16/02/2024 08:44:43;2;;1,6312;;;
2819959;16/02/2024 08:46:43;2;;1,6724;;;
2819961;16/02/2024 08:47:43;2;;1,948;;;
2819963;16/02/2024 08:48:43;2;;2,0696;;;
2819965;16/02/2024 08:49:43;2;;2,088;;;
2819967;16/02/2024 08:50:42;2;;2,0748;;;
2819969;16/02/2024 08:51:43;2;;2,0092;;;
2819972;16/02/2024 08:53:43;2;;1,9868;;;
2819974;16/02/2024 08:54:42;2;;1,8956;;;
2819976;16/02/2024 08:55:43;2;;1,8124;;;
2819978;16/02/2024 08:56:42;2;;1,7924;;;
2819980;16/02/2024 08:57:43;2;;2,1488;;;
2819982;16/02/2024 08:58:43;2;;2,1372;;;
2819985;16/02/2024 09:00:43;3;;2,7976;;;
2819987;16/02/2024 09:01:42;3;;2,618;;;
2819989;16/02/2024 09:02:43;3;;2,6972;;;
2819991;16/02/2024 09:03:42;2;;2,4412;;;
2819993;16/02/2024 09:04:43;3;;2,6888;;;
2819995;16/02/2024 09:05:42;2;;2,374;;;
2819998;16/02/2024 09:07:43;3;;2,5136;;;
2820000;16/02/2024 09:08:42;3;;2,7116;;;
2820002;16/02/2024 09:09:43;2;;2,1628;;;
2820004;16/02/2024 09:10:42;2;;1,8212;;;
2820006;16/02/2024 09:11:43;2;;1,6644;;;
2820008;16/02/2024 09:12:42;2;;1,8944;;;
2820011;16/02/2024 09:14:43;3;;2,9484;;;
2820013;16/02/2024 09:15:43;3;;2,682;;;
2820015;16/02/2024 09:16:43;3;;2,5264;;;
2820017;16/02/2024 09:17:42;3;;2,696;;;
2820019;16/02/2024 09:18:43;3;;2,9588;;;
2820021;16/02/2024 09:19:42;5;;4,8332;;;
2820024;16/02/2024 09:21:42;6;;6,2732;;;
2820026;16/02/2024 09:22:43;5;;4,6324;;;
2820028;16/02/2024 09:23:42;5;;5,1236;;;
2820030;16/02/2024 09:24:43;4;;4,474;;;
2820032;16/02/2024 09:25:43;4;;3,7808;;;
2820034;16/02/2024 09:26:42;5;;4,9104;;;
2820037;16/02/2024 09:28:42;5;;5,4588;;;
2820039;16/02/2024 09:29:43;3;;2,9092;;;
2820041;16/02/2024 09:30:43;3;;2,8164;;;
2820043;16/02/2024 09:31:43;2;;2,312;;;
2820045;16/02/2024 09:32:43;2;;2,196;;;
2820047;16/02/2024 09:33:43;2;;2,1684;;;
2820050;16/02/2024 09:35:42;2;;2,2328;;;
2820052;16/02/2024 09:36:43;2;;2,4412;;;
2820054;16/02/2024 09:37:43;3;;2,5564;;;
2820056;16/02/2024 09:38:43;2;;2,4364;;;
2820058;16/02/2024 09:39:43;2;;2,308;;;
2820060;16/02/2024 09:40:43;2;;2,2028;;;
2820063;16/02/2024 09:42:42;2;;2,3044;;;
2820065;16/02/2024 09:43:43;2;;2,3016;;;
2820067;16/02/2024 09:44:42;2;;2,3504;;;
2820069;16/02/2024 09:45:43;3;;2,5944;;;
2820071;16/02/2024 09:46:42;3;;2,8956;;;
2820073;16/02/2024 09:47:43;3;;3,0132;;;
2820076;16/02/2024 09:49:43;3;;2,738;;;
2820079;16/02/2024 09:51:42;3;;2,5048;;;
2820081;16/02/2024 09:52:43;2;;2,4328;;;
2820083;16/02/2024 09:53:42;2;;2,354;;;
2820085;16/02/2024 09:54:43;2;;2,2972;;;
2820087;16/02/2024 09:55:43;2;;2,3576;;;
2820089;16/02/2024 09:56:43;2;;2,3828;;;
2820092;16/02/2024 09:58:43;3;;2,848;;;
2820094;16/02/2024 09:59:43;4;;4,3616;;;
2820096;16/02/2024 10:00:42;4;;3,914;;;
2820098;16/02/2024 10:01:43;3;;3,0112;;;
2820100;16/02/2024 10:02:43;3;;2,6924;;;
2820102;16/02/2024 10:03:43;3;;2,6428;;;
2820105;16/02/2024 10:05:43;3;;3,032;;;
2820107;16/02/2024 10:06:43;3;;3,2028;;;
2820109;16/02/2024 10:07:43;4;;3,9444;;;
2820111;16/02/2024 10:08:43;5;;4,8828;;;
2820113;16/02/2024 10:09:42;5;;4,5404;;;
2820115;16/02/2024 10:10:43;5;;5,0768;;;
2820118;16/02/2024 10:12:43;4;;3,5796;;;
2820120;16/02/2024 10:13:43;3;;3,0404;;;
2820122;16/02/2024 10:14:43;3;;2,9532;;;
2820124;16/02/2024 10:15:43;4;;3,636;;;
2820126;16/02/2024 10:16:43;5;;5,27;;;
2820128;16/02/2024 10:17:43;4;;4,4452;;;
2820131;16/02/2024 10:19:43;3;;3,272;;;
2820133;16/02/2024 10:20:42;3;;3,1436;;;
2820135;16/02/2024 10:21:43;3;;2,9132;;;
2820137;16/02/2024 10:22:43;3;;2,7048;;;
2820139;16/02/2024 10:23:43;3;;2,7288;;;
2820141;16/02/2024 10:24:43;3;;2,7364;;;
2820144;16/02/2024 10:26:43;3;;3,2116;;;
2820146;16/02/2024 10:27:43;3;;3,4468;;;
2820148;16/02/2024 10:28:43;3;;3,442;;;
2820150;16/02/2024 10:29:43;3;;3,2436;;;
2820152;16/02/2024 10:30:43;4;;4,1236;;;
2820154;16/02/2024 10:31:43;4;;3,6868;;;
2820157;16/02/2024 10:33:43;3;;3,144;;;
2820159;16/02/2024 10:34:43;3;;2,962;;;
2820161;16/02/2024 10:35:43;3;;2,6812;;;
2820163;16/02/2024 10:36:43;2;;2,4584;;;
2820165;16/02/2024 10:37:43;2;;2,3716;;;
2820167;16/02/2024 10:38:43;2;;2,3636;;;
2820170;16/02/2024 10:40:43;3;;2,5824;;;
2820172;16/02/2024 10:41:43;3;;2,7364;;;
2820174;16/02/2024 10:42:43;3;;2,7368;;;
2820176;16/02/2024 10:43:43;3;;2,718;;;
2820178;16/02/2024 10:44:43;3;;2,788;;;
2820180;16/02/2024 10:45:43;3;;2,8096;;;
2820183;16/02/2024 10:47:43;3;;2,8648;;;
2820185;16/02/2024 10:48:43;3;;2,9432;;;
2820187;16/02/2024 10:49:43;3;;2,9888;;;
2820189;16/02/2024 10:50:43;3;;2,9688;;;
2820191;16/02/2024 10:51:43;3;;2,7704;;;
2820193;16/02/2024 10:52:43;3;;2,5916;;;
2820196;16/02/2024 10:54:42;2;;2,1164;;;
2820198;16/02/2024 10:55:43;2;;1,9096;;;
2820200;16/02/2024 10:56:43;2;;1,7652;;;
2820202;16/02/2024 10:57:43;2;;1,7092;;;
2820204;16/02/2024 10:58:43;2;;1,6832;;;
2820206;16/02/2024 10:59:43;2;;1,668;;;
2820209;16/02/2024 11:01:43;2;;1,7176;;;
2820211;16/02/2024 11:02:43;2;;1,742;;;
2820213;16/02/2024 11:03:43;2;;1,7452;;;
2820215;16/02/2024 11:04:43;2;;1,7144;;;
2820217;16/02/2024 11:05:43;2;;1,6712;;;
2820219;16/02/2024 11:06:43;2;;1,6416;;;
2820222;16/02/2024 11:08:43;2;;1,7208;;;
2820224;16/02/2024 11:09:43;2;;1,7176;;;
2820226;16/02/2024 11:10:43;2;;1,7112;;;
2820228;16/02/2024 11:11:43;2;;1,7356;;;
2820230;16/02/2024 11:12:43;2;;1,7484;;;
2820232;16/02/2024 11:13:43;2;;1,816;;;
2820235;16/02/2024 11:15:43;2;;1,8392;;;
2820237;16/02/2024 11:16:43;2;;1,8564;;;
2820239;16/02/2024 11:17:43;2;;1,8884;;;
2820241;16/02/2024 11:18:43;2;;1,9384;;;
2820243;16/02/2024 11:19:43;2;;1,8836;;;
2820245;16/02/2024 11:20:43;2;;1,7076;;;
2820248;16/02/2024 11:22:43;2;;1,5788;;;
2820250;16/02/2024 11:23:43;2;;1,5444;;;
2820252;16/02/2024 11:24:43;2;;1,6032;;;
2820254;16/02/2024 11:25:43;2;;1,7904;;;
2820256;16/02/2024 11:26:43;2;;1,9828;;;
2820258;16/02/2024 11:27:43;2;;2,0824;;;
2820261;16/02/2024 11:29:43;2;;1,992;;;
2820263;16/02/2024 11:30:43;2;;1,9952;;;
2820265;16/02/2024 11:31:43;2;;2,0712;;;
2820267;16/02/2024 11:32:43;2;;2,1076;;;
2820269;16/02/2024 11:33:43;2;;2,066;;;
2820271;16/02/2024 11:34:43;2;;2,0048;;;
2820274;16/02/2024 11:36:43;2;;1,9448;;;
2820276;16/02/2024 11:37:43;2;;2,0604;;;
2820278;16/02/2024 11:38:43;2;;2,302;;;
2820280;16/02/2024 11:39:43;3;;2,6748;;;
2820282;16/02/2024 11:40:43;3;;3,1464;;;
2820284;16/02/2024 11:41:43;4;;3,636;;;
2820287;16/02/2024 11:43:43;5;;5,032;;;
2820289;16/02/2024 11:44:43;8;;8,2636;;;
2820291;16/02/2024 11:45:43;8;;7,8292;;;
2820293;16/02/2024 11:46:43;7;;6,73;;;
2820295;16/02/2024 11:47:43;5;;5,3296;;;
2820297;16/02/2024 11:48:43;5;;4,8808;;;
2820300;16/02/2024 11:50:43;5;;5,4192;;;
2820302;16/02/2024 11:51:43;6;;5,8648;;;
2820304;16/02/2024 11:52:43;5;;5,1536;;;
2820306;16/02/2024 11:53:43;4;;3,9704;;;
2820308;16/02/2024 11:54:43;3;;3,4792;;;
2820310;16/02/2024 11:55:43;3;;3,3728;;;
2820313;16/02/2024 11:57:43;4;;3,7408;;;
2820315;16/02/2024 11:58:43;4;;4,2124;;;
2820317;16/02/2024 11:59:43;4;;4,4744;;;
2820319;16/02/2024 12:00:43;4;;4,4772;;;
2820321;16/02/2024 12:01:43;4;;3,7188;;;
2820323;16/02/2024 12:02:43;4;;3,76;;;
2820326;16/02/2024 12:04:43;4;;3,7708;;;
2820328;16/02/2024 12:05:43;3;;3,4332;;;
2820330;16/02/2024 12:06:43;3;;3,0144;;;
2820332;16/02/2024 12:07:43;3;;2,7424;;;
2820334;16/02/2024 12:08:43;3;;2,8536;;;
2820336;16/02/2024 12:09:43;3;;3,43;;;
2820339;16/02/2024 12:11:43;4;;4,4176;;;
2820341;16/02/2024 12:12:43;3;;3,486;;;
2820343;16/02/2024 12:13:43;4;;3,864;;;
2820345;16/02/2024 12:14:43;4;;3,8888;;;
2820347;16/02/2024 12:15:43;4;;4,3272;;;
2820349;16/02/2024 12:16:43;5;;4,8176;;;
2820352;16/02/2024 12:18:43;7;;7,3676;;;
2820354;16/02/2024 12:19:43;4;;3,716;;;
2820356;16/02/2024 12:20:43;3;;3,0712;;;
2820358;16/02/2024 12:21:43;3;;2,7656;;;
2820360;16/02/2024 12:22:43;2;;2,4056;;;
2820362;16/02/2024 12:23:43;2;;2,166;;;
2820365;16/02/2024 12:25:43;2;;2,1032;;;
2820367;16/02/2024 12:26:43;2;;2,4804;;;
2820369;16/02/2024 12:27:43;3;;3,3544;;;
2820371;16/02/2024 12:28:43;6;;5,5736;;;
2820373;16/02/2024 12:29:43;4;;3,8852;;;
2820375;16/02/2024 12:30:43;4;;4,0504;;;
2820378;16/02/2024 12:32:43;4;;4,3544;;;
2820380;16/02/2024 12:33:43;4;;4,3884;;;
2820382;16/02/2024 12:34:43;4;;4,0896;;;
2820384;16/02/2024 12:35:43;4;;3,508;;;
2820386;16/02/2024 12:36:43;3;;3,4232;;;
2820388;16/02/2024 12:37:43;4;;3,8392;;;
2820391;16/02/2024 12:39:43;5;;4,8628;;;
2820393;16/02/2024 12:40:43;6;;6,0888;;;
2820395;16/02/2024 12:41:43;5;;5,0392;;;
2820397;16/02/2024 12:42:43;6;;6,0252;;;
2820399;16/02/2024 12:43:43;8;;8,1144;;;
2820401;16/02/2024 12:44:43;5;;5,4172;;;
2820404;16/02/2024 12:46:43;5;;5,052;;;
2820406;16/02/2024 12:47:43;5;;5,3364;;;
2820408;16/02/2024 12:48:43;5;;5,0488;;;
2820410;16/02/2024 12:49:43;5;;4,8452;;;
2820412;16/02/2024 12:50:43;5;;5,1976;;;
2820414;16/02/2024 12:51:43;8;;8,0648;;;
2820417;16/02/2024 12:53:43;7;;7,0632;;;
2820419;16/02/2024 12:54:43;6;;6,0956;;;
2820421;16/02/2024 12:55:43;9;;8,7492;;;
2820423;16/02/2024 12:56:43;9;;9,0596;;;
2820425;16/02/2024 12:57:43;7;;6,7872;;;
2820427;16/02/2024 12:58:43;5;;5,1036;;;
2820430;16/02/2024 13:00:43;8;;7,7004;;;
2820432;16/02/2024 13:01:43;9;;8,6656;;;
2820434;16/02/2024 13:02:43;7;;7,1544;;;
2820436;16/02/2024 13:03:43;4;;3,9312;;;
2820438;16/02/2024 13:04:43;4;;4,2248;;;
2820440;16/02/2024 13:05:43;6;;5,7152;;;
2820443;16/02/2024 13:07:43;6;;5,8256;;;
2820445;16/02/2024 13:08:43;7;;6,5852;;;
2820447;16/02/2024 13:09:43;6;;6,1916;;;